TimeCDT,TemperatureF,Dew PointF,Humidity,Sea Level PressureIn,VisibilityMPH,Wind Direction,Wind SpeedMPH,Gust SpeedMPH,PrecipitationIn,Events,Conditions,WindDirDegrees,DateUTC
12:15 AM,34.0,24.4,68,30.40,10.0,WNW,4.6,-,N/A,,Mostly Cloudy,300,2012-10-27 05:15:00
12:35 AM,33.1,24.4,71,30.41,10.0,WNW,8.1,-,N/A,,Mostly Cloudy,300,2012-10-27 05:35:00
12:55 AM,32.9,24.1,70,30.41,10.0,NW,4.6,-,N/A,,Mostly Cloudy,320,2012-10-27 05:55:00
1:15 AM,32.5,23.5,69,30.40,10.0,NNW,4.6,-,N/A,,Clear,330,2012-10-27 06:15:00
1:35 AM,32.0,23.4,70,30.39,10.0,Calm,Calm,-,N/A,,Scattered Clouds,0,2012-10-27 06:35:00
1:55 AM,32.4,23.2,69,30.38,10.0,Calm,Calm,-,N/A,,Clear,0,2012-10-27 06:55:00
2:15 AM,30.9,22.8,72,30.37,10.0,Calm,Calm,-,N/A,,Clear,0,2012-10-27 07:15:00
2:35 AM,31.6,23.2,71,30.37,10.0,Calm,Calm,-,N/A,,Clear,0,2012-10-27 07:35:00
2:55 AM,31.1,23.2,72,30.36,10.0,Calm,Calm,-,N/A,,Clear,0,2012-10-27 07:55:00
3:15 AM,30.9,23.2,73,30.37,10.0,Calm,Calm,-,N/A,,Clear,0,2012-10-27 08:15:00
3:35 AM,30.4,23.0,74,30.37,10.0,Calm,Calm,-,N/A,,Clear,0,2012-10-27 08:35:00
3:55 AM,29.3,23.2,78,30.36,10.0,Calm,Calm,-,N/A,,Clear,0,2012-10-27 08:55:00
4:15 AM,30.0,23.7,77,30.35,10.0,Calm,Calm,-,N/A,,Clear,0,2012-10-27 09:15:00
4:35 AM,30.6,23.2,74,30.35,10.0,Calm,Calm,-,N/A,,Clear,0,2012-10-27 09:35:00
4:55 AM,29.7,22.1,73,30.35,10.0,Calm,Calm,-,N/A,,Clear,0,2012-10-27 09:55:00
5:15 AM,28.8,23.0,79,30.36,10.0,Calm,Calm,-,N/A,,Clear,0,2012-10-27 10:15:00
5:35 AM,28.8,22.6,78,30.36,10.0,Calm,Calm,-,N/A,,Clear,0,2012-10-27 10:35:00
5:55 AM,29.1,22.6,77,30.37,10.0,Calm,Calm,-,N/A,,Clear,0,2012-10-27 10:55:00
6:15 AM,29.8,23.0,76,30.37,10.0,Calm,Calm,-,N/A,,Clear,0,2012-10-27 11:15:00
6:55 AM,28.6,22.8,79,30.38,10.0,Calm,Calm,-,N/A,,Clear,0,2012-10-27 11:55:00
7:15 AM,27.0,22.1,82,30.39,10.0,SSW,3.5,-,N/A,,Clear,210,2012-10-27 12:15:00
7:35 AM,28.4,22.8,80,30.39,10.0,Calm,Calm,-,N/A,,Mostly Cloudy,0,2012-10-27 12:35:00
7:55 AM,28.0,22.8,81,30.39,10.0,Calm,Calm,-,N/A,,Overcast,0,2012-10-27 12:55:00
8:15 AM,28.6,23.2,80,30.39,10.0,Calm,Calm,-,N/A,,Scattered Clouds,0,2012-10-27 13:15:00
8:35 AM,29.1,23.0,78,30.39,10.0,Calm,Calm,-,N/A,,Mostly Cloudy,0,2012-10-27 13:35:00
9:15 AM,32.0,26.2,79,30.39,10.0,Calm,Calm,-,N/A,,Clear,0,2012-10-27 14:15:00
9:35 AM,34.7,25.5,69,30.39,10.0,SW,3.5,-,N/A,,Clear,220,2012-10-27 14:35:00
9:55 AM,36.5,26.6,67,30.39,10.0,South,3.5,-,N/A,,Clear,180,2012-10-27 14:55:00
10:35 AM,38.8,25.3,58,30.37,10.0,SE,4.6,-,N/A,,Clear,140,2012-10-27 15:35:00
10:55 AM,39.0,23.2,53,30.36,10.0,SE,3.5,-,N/A,,Clear,140,2012-10-27 15:55:00
11:15 AM,39.9,23.5,52,30.36,10.0,SSE,5.8,-,N/A,,Clear,150,2012-10-27 16:15:00
11:35 AM,40.5,24.1,52,30.36,10.0,SE,5.8,-,N/A,,Clear,140,2012-10-27 16:35:00
11:55 AM,40.5,23.4,51,30.35,10.0,South,3.5,-,N/A,,Clear,180,2012-10-27 16:55:00
12:15 PM,40.5,23.9,52,30.35,10.0,South,3.5,-,N/A,,Clear,180,2012-10-27 17:15:00
12:35 PM,40.8,23.9,51,30.34,10.0,WSW,4.6,-,N/A,,Clear,240,2012-10-27 17:35:00
12:55 PM,41.2,24.1,51,30.33,10.0,Calm,Calm,-,N/A,,Clear,0,2012-10-27 17:55:00
1:15 PM,42.6,24.3,48,30.32,10.0,Calm,Calm,-,N/A,,Clear,0,2012-10-27 18:15:00
1:35 PM,42.3,25.0,50,30.31,10.0,SSE,4.6,-,N/A,,Clear,150,2012-10-27 18:35:00
1:55 PM,43.2,25.3,49,30.30,10.0,South,5.8,-,N/A,,Clear,170,2012-10-27 18:55:00
2:15 PM,44.2,25.3,47,30.29,10.0,South,8.1,-,N/A,,Clear,190,2012-10-27 19:15:00
2:35 PM,44.8,25.7,47,30.28,10.0,SSW,3.5,-,N/A,,Clear,200,2012-10-27 19:35:00
2:55 PM,43.9,24.6,47,30.28,10.0,SSW,3.5,-,N/A,,Clear,210,2012-10-27 19:55:00
3:15 PM,44.6,25.0,46,30.27,10.0,South,5.8,-,N/A,,Clear,190,2012-10-27 20:15:00
3:35 PM,44.6,25.2,46,30.26,10.0,South,5.8,-,N/A,,Clear,170,2012-10-27 20:35:00
3:55 PM,45.5,25.5,46,30.26,10.0,South,8.1,-,N/A,,Clear,170,2012-10-27 20:55:00
4:15 PM,45.1,25.7,47,30.25,10.0,SSE,6.9,-,N/A,,Clear,160,2012-10-27 21:15:00
4:35 PM,45.3,25.7,46,30.25,10.0,SE,4.6,-,N/A,,Clear,140,2012-10-27 21:35:00
4:55 PM,44.6,26.1,48,30.25,10.0,South,3.5,-,N/A,,Scattered Clouds,180,2012-10-27 21:55:00
5:15 PM,44.1,26.1,49,30.25,10.0,South,3.5,-,N/A,,Scattered Clouds,170,2012-10-27 22:15:00
5:35 PM,43.7,27.3,53,30.24,10.0,SSE,5.8,-,N/A,,Clear,150,2012-10-27 22:35:00
5:55 PM,43.3,27.1,53,30.24,10.0,SE,3.5,-,N/A,,Clear,130,2012-10-27 22:55:00
6:15 PM,43.0,27.5,54,30.24,10.0,SE,4.6,-,N/A,,Clear,140,2012-10-27 23:15:00
6:35 PM,41.7,27.3,57,30.25,10.0,South,3.5,-,N/A,,Clear,170,2012-10-27 23:35:00
6:55 PM,41.2,27.1,57,30.25,10.0,SE,4.6,-,N/A,,Clear,140,2012-10-27 23:55:00
7:15 PM,40.1,26.6,59,30.25,10.0,SE,4.6,-,N/A,,Clear,140,2012-10-28 00:15:00
7:35 PM,40.1,26.6,59,30.25,10.0,SE,5.8,-,N/A,,Clear,130,2012-10-28 00:35:00
7:55 PM,39.2,27.1,62,30.25,10.0,SE,5.8,-,N/A,,Clear,130,2012-10-28 00:55:00
8:15 PM,38.3,27.1,64,30.26,10.0,SSE,3.5,-,N/A,,Clear,160,2012-10-28 01:15:00
8:35 PM,38.5,27.0,63,30.27,10.0,SSE,3.5,-,N/A,,Clear,160,2012-10-28 01:35:00
8:55 PM,38.8,27.1,63,30.27,10.0,Calm,Calm,-,N/A,,Clear,0,2012-10-28 01:55:00
9:15 PM,38.7,27.3,64,30.28,10.0,SE,3.5,-,N/A,,Scattered Clouds,140,2012-10-28 02:15:00
9:35 PM,39.4,26.6,60,30.28,10.0,SE,3.5,-,N/A,,Scattered Clouds,140,2012-10-28 02:35:00
9:55 PM,38.5,27.0,63,30.28,10.0,Calm,Calm,-,N/A,,Scattered Clouds,0,2012-10-28 02:55:00
10:15 PM,38.3,26.6,63,30.28,10.0,SE,3.5,-,N/A,,Clear,140,2012-10-28 03:15:00
10:35 PM,38.5,26.6,62,30.28,10.0,SE,4.6,-,N/A,,Clear,140,2012-10-28 03:35:00
10:55 PM,38.7,27.0,63,30.28,10.0,SE,3.5,-,N/A,,Clear,140,2012-10-28 03:55:00
11:35 PM,37.4,27.5,67,30.28,10.0,SSE,3.5,-,N/A,,Scattered Clouds,150,2012-10-28 04:35:00
11:55 PM,37.8,27.9,67,30.28,10.0,SSE,3.5,-,N/A,,Mostly Cloudy,150,2012-10-28 04:55:00